Waarnemingen

Advertentie
Mijn weer
La Roche-Sur-Yon, Frankrijk (7306): temperatuur & dauwpunt: 14.10.2018 15:00:00 - 20.10.2018 15:00:00 (CEST)La Roche-Sur-Yon, Frankrijk (7306): temperatuur 5cm: 14.10.2018 15:00:00 - 20.10.2018 15:00:00 (CEST)La Roche-Sur-Yon, Frankrijk (7306): temperatuur -20cm & temperatuur -100cm: 14.10.2018 15:00:00 - 20.10.2018 15:00:00 (CEST)La Roche-Sur-Yon, Frankrijk (7306): windsnelheid & windstoten: 14.10.2018 15:00:00 - 20.10.2018 15:00:00 (CEST)La Roche-Sur-Yon, Frankrijk (7306): windrichting: 14.10.2018 15:00:00 - 20.10.2018 15:00:00 (CEST)La Roche-Sur-Yon, Frankrijk (7306): luchtdruk: 14.10.2018 15:00:00 - 20.10.2018 15:00:00 (CEST)La Roche-Sur-Yon, Frankrijk (7306): zicht: 14.10.2018 15:00:00 - 20.10.2018 15:00:00 (CEST)La Roche-Sur-Yon, Frankrijk (7306): Zonneschijnduur: 14.10.2018 15:00:00 - 20.10.2018 15:00:00 (CEST)La Roche-Sur-Yon, Frankrijk (7306): neerslag: 14.10.2018 15:00:00 - 20.10.2018 15:00:00 (CEST)
Datum & Tijd tt [°C] td [°C] tt 5cm [°C] tt -20cm [°C] tt -100cm [°C] ff [km/u] ff [kn] fx [km/u] fx [kn] dd ppp [hPa] vv [km] sd [min] rr [mm]
20.10.2018 15:00:00 19,3 11,8 22,9 15,1 16,8 22 12 36 19 NO 1027,1 9 60 0,0
20.10.2018 14:00:00 18,6 11,7 22,0 15,0 16,7 22 12 34 19 NO 1027,4 9 60 0,0
20.10.2018 13:00:00 16,9 11,6 19,9 15,0 16,7 22 12 33 18 NNO 1028,4 9 60 0,0
20.10.2018 12:00:00 15,1 11,3 17,5 15,0 16,8 17 9 26 14 NO 1028,1 9 60 0,0
20.10.2018 11:00:00 13,1 10,8 14,3 15,0 16,7 14 8 26 14 NNO 1027,7 6 60 0,0
20.10.2018 10:00:00 11,3 10,0 9,4 15,2 16,8 13 7 20 11 NNO 1027,2 4,6 60 0,0
20.10.2018 09:00:00 9,7 8,9 8,1 15,2 16,7 14 8 22 12 NO 1027,0 3,6 7 0,0
20.10.2018 08:00:00 9,9 8,8 8,9 15,3 16,7 13 7 30 16 NNO 1026,3 3,6 0 0,0
20.10.2018 07:00:00 10,2 9,4 8,8 15,4 16,7 20 11 30 16 NNO 1026,4 3,6 0 0,0
20.10.2018 06:00:00 10,2 9,4 9,1 15,5 16,8 12 6 22 12 NNO 1025,7 3,3 0 0,0
20.10.2018 05:00:00 10,3 9,5 8,6 15,6 16,8 13 7 21 11 NNO 1025,4 3,1 0 0,0
20.10.2018 04:00:00 10,4 9,5 9,3 15,7 16,7 12 7 19 11 NNO 1025,2 3,1 0 0,2
20.10.2018 03:00:00 11,1 10,0 10,1 15,8 16,7 14 8 23 12 NNO 1025,6 3,5 0 0,0
20.10.2018 02:00:00 11,6 10,5 10,6 15,9 16,8 17 9 26 14 N 1025,6 3,5 0 0,0
20.10.2018 01:00:00 11,9 10,6 10,7 15,9 16,8 11 6 19 11 NNO 1025,0 3,9 0 0,0
20.10.2018 00:00:00 12,6 11,0 11,3 16,0 16,8 13 7 34 18 NO 1024,6 4,6 0 0,0
19.10.2018 23:00:00 13,3 11,4 12,3 16,0 16,8 19 10 29 15 NO 1024,3 5 0 0,0
19.10.2018 22:00:00 13,7 11,4 12,6 16,1 16,8 19 10 27 15 NNO 1024,2 6 0 0,0
19.10.2018 21:00:00 14,3 11,4 13,1 16,1 16,8 14 8 26 14 NNO 1023,9 6 0 0,0
19.10.2018 20:00:00 15,3 12,1 14,1 16,0 16,8 17 9 28 15 NNO 1023,5 7 0 0,0
19.10.2018 19:00:00 16,6 12,1 15,9 16,0 16,8 16 9 31 17 NNO 1022,5 9 48 0,0
19.10.2018 18:00:00 18,9 12,6 20,8 15,8 16,8 17 9 29 15 NNO 1021,4 11 60 0,0
19.10.2018 17:00:00 20,1 12,8 24,2 15,7 16,8 19 10 31 17 NNO 1021,2 11 60 0,0
19.10.2018 16:00:00 20,6 12,8 24,1 15,5 16,8 20 11 31 17 NNO 1020,9 9 60 0,0
19.10.2018 15:00:00 19,9 12,4 23,9 15,4 16,8 24 13 35 19 NO 1021,2 12 60 0,0
19.10.2018 14:00:00 19,2 12,7 23,2 15,3 16,8 22 12 35 19 NNO 1021,7 11 60 0,0
19.10.2018 13:00:00 17,4 12,3 21,4 15,3 16,8 17 9 30 16 N 1022,1 10 60 0,0
19.10.2018 12:00:00 16,0 12,2 17,7 15,3 16,8 17 9 28 15 NNO 1021,9 9 60 0,0
19.10.2018 11:00:00 13,8 11,5 14,2 15,3 16,8 18 10 29 15 NNO 1021,6 9 60 0,0
19.10.2018 10:00:00 11,6 10,3 10,2 15,5 16,8 18 10 27 15 NNO 1021,4 7 60 0,0
19.10.2018 09:00:00 10,2 9,3 9,3 15,5 16,8 16 9 23 12 NNO 1020,7 7 9 0,0
19.10.2018 08:00:00 10,1 9,2 9,3 15,6 16,8 16 9 22 12 NNO 1020,4 8 0 0,0
19.10.2018 07:00:00 10,4 9,5 9,6 15,7 16,8 14 8 24 13 NNO 1020,4 8 0 0,0
19.10.2018 06:00:00 10,9 10,0 9,7 15,9 16,8 16 9 24 13 NNO 1020,2 8 0 0,0
19.10.2018 05:00:00 10,9 9,8 9,5 16,0 16,8 13 7 17 9 NNO 1020,1 7 0 0,0
19.10.2018 04:00:00 11,2 9,9 10,0 16,0 16,8 11 6 15 8 NNO 1020,5 7 0 0,0
19.10.2018 03:00:00 12,0 10,2 10,6 16,1 16,8 9 5 15 8 N 1020,4 9 0 0,0
19.10.2018 02:00:00 12,6 10,5 11,0 16,2 16,8 10 5 18 10 NO 1020,0 11 0 0,0
19.10.2018 01:00:00 13,8 11,0 12,6 16,3 16,8 15 8 26 14 NO 1020,1 15 0 0,0
19.10.2018 00:00:00 14,6 11,2 13,3 16,3 16,8 17 9 32 18 NO 1020,4 19 0 0,0
18.10.2018 23:00:00 15,4 11,2 14,3 16,4 16,9 21 12 37 20 NNO 1020,0 28 0 0,0
18.10.2018 22:00:00 16,3 11,7 15,2 16,4 16,8 23 12 39 21 NNO 1019,7 25 0 0,0
18.10.2018 21:00:00 17,2 12,1 15,9 16,4 16,9 21 12 32 17 NNO 1019,4 25 0 0,0
18.10.2018 20:00:00 17,7 12,4 16,4 16,3 16,9 19 10 33 18 NNO 1018,7 20 0 0,0
18.10.2018 19:00:00 18,9 12,6 18,1 16,2 16,9 19 10 35 19 NNO 1018,3 19 50 0,0
18.10.2018 18:00:00 20,2 12,4 21,2 16,1 16,9 26 14 40 21 NNO 1017,5 19 60 0,0
18.10.2018 17:00:00 21,0 12,4 24,6 16,0 16,9 23 13 37 20 NNO 1017,6 14 60 0,0
18.10.2018 16:00:00 21,6 13,0 22,5 15,8 16,9 19 11 34 18 NO 1017,9 10 53 0,0
18.10.2018 15:00:00 20,8 12,5 24,8 15,6 16,9 23 13 36 19 NO 1018,1 10 60 0,0
18.10.2018 14:00:00 20,1 13,1 23,6 15,5 16,9 23 12 41 22 NO 1018,8 9 60 0,0
18.10.2018 13:00:00 19,2 12,7 22,7 15,5 16,9 24 13 38 20 NO 1019,4 8 60 0,0
18.10.2018 12:00:00 18,5 12,5 20,7 15,4 16,9 27 14 38 20 NO 1019,5 7 60 0,0
18.10.2018 11:00:00 16,5 13,0 15,0 15,5 16,9 22 12 34 18 NO 1019,2 10 16 0,0
18.10.2018 10:00:00 14,3 12,2 13,6 15,5 16,9 22 12 35 19 NO 1018,9 12 2 0,0
18.10.2018 09:00:00 13,7 11,7 13,0 15,5 16,9 20 11 28 15 NO 1018,5 12 0 0,0
18.10.2018 08:00:00 13,8 11,7 13,2 15,5 16,9 16 8 24 13 NNO 1018,2 17 0 0,0
18.10.2018 07:00:00 14,1 11,8 13,4 15,6 16,9 14 8 23 13 NNO 1017,7 20 0 0,0
18.10.2018 06:00:00 14,4 12,1 13,5 15,6 16,9 15 8 22 12 NNO 1017,4 19 0 0,0
18.10.2018 05:00:00 14,4 12,3 13,1 15,6 16,9 16 9 24 13 NO 1017,3 20 0 0,0
18.10.2018 04:00:00 14,4 12,3 13,6 15,7 16,9 15 8 21 12 NNO 1017,4 20 0 0,0
18.10.2018 03:00:00 14,5 12,5 14,0 15,7 16,9 16 9 25 14 NO 1017,6 18 0 0,0
18.10.2018 02:00:00 14,5 12,7 13,9 15,7 16,9 17 9 25 13 NNO 1017,7 16 0 0,0
18.10.2018 01:00:00 14,2 12,9 13,5 15,8 16,9 16 8 21 12 NNO 1017,8 11 0 0,0
18.10.2018 00:00:00 14,0 12,9 12,8 15,8 16,9 14 8 20 11 NNO 1018,1 11 0 0,0
17.10.2018 23:00:00 13,6 12,3 12,8 15,8 16,9 13 7 18 10 NNO 1018,1 10 0 0,0
17.10.2018 22:00:00 14,1 12,3 13,3 15,8 16,9 14 7 18 10 NNO 1017,8 14 0 0,0
17.10.2018 21:00:00 15,0 12,9 14,6 15,8 17,0 12 7 18 10 NNO 1017,7 17 0 0,0
17.10.2018 20:00:00 15,2 12,9 14,9 15,7 16,9 13 7 19 11 N 1017,3 20 0 0,0
17.10.2018 19:00:00 15,6 12,7 15,5 15,6 17,0 13 7 17 9 N 1016,6 22 21 0,0
17.10.2018 18:00:00 16,3 13,0 16,7 15,5 17,0 12 7 18 10 N 1016,5 25 21 0,0
17.10.2018 17:00:00 16,4 13,3 16,4 15,4 17,0 11 6 16 8 N 1016,5 19 4 0,0
17.10.2018 16:00:00 15,7 12,3 15,5 15,3 16,9 8 4 13 7 NNO 1017,1 18 0 0,0
17.10.2018 15:00:00 15,6 12,3 14,7 15,2 17,0 7 4 12 7 ONO 1017,4 19 0 0,2
17.10.2018 14:00:00 16,3 11,2 18,4 15,1 17,0 9 5 20 11 NO 1017,9 51 0 0,0
17.10.2018 13:00:00 16,8 11,3 20,0 15,0 17,0 10 5 16 9 NO 1018,6 56 37 0,0
17.10.2018 12:00:00 15,1 10,9 15,8 15,0 17,0 8 5 18 10 NNO 1018,9 53 15 0,0
17.10.2018 11:00:00 13,0 11,6 12,8 15,1 17,0 10 5 15 8 NO 1019,1 41 40 0,0
17.10.2018 10:00:00 11,0 10,8 10,0 15,2 17,0 8 4 11 6 NNO 1019,4 14 15 0,0
17.10.2018 09:00:00 9,6 9,5 5,0 15,3 17,0 6 3 10 6 NO 1019,3 11 0 0,0
17.10.2018 08:00:00 6,9 6,8 3,4 15,4 17,0 5 3 9 5 N 1019,6 0,4 0 0,0
17.10.2018 07:00:00 6,5 6,4 3,4 15,6 17,0 6 3 8 5 NO 1019,6 1,3 0 0,0
17.10.2018 06:00:00 7,3 7,0 3,6 15,7 17,0 4 2 5 3 NNO 1019,4 0,3 0 0,0
17.10.2018 05:00:00 7,3 7,0 4,3 15,9 17,0 4 2 8 4 NNO 1019,4 0,2 0 0,0
17.10.2018 04:00:00 8,2 7,9 4,2 16,1 17,0 4 2 6 4 NO 1019,7 2,8 0 0,0
17.10.2018 03:00:00 8,1 7,7 4,6 16,3 17,0 5 3 6 4 N 1019,8 0,2 0 0,0
17.10.2018 02:00:00 9,5 9,0 4,5 16,4 17,0 3 2 5 3 N 1020,2 0,3 0 0,0
17.10.2018 01:00:00 9,0 8,2 4,5 16,6 17,0 5 3 7 4 NNW 1020,4 1,8 0 0,0
17.10.2018 00:00:00 9,5 8,6 5,1 16,7 17,0 4 2 5 3 NNW 1020,6 11 0 0,0
16.10.2018 23:00:00 10,5 9,4 5,6 16,9 17,0 2 1 6 3 NNW 1020,5 54 0 0,0
16.10.2018 22:00:00 10,8 8,9 6,3 17,0 17,0 3 2 5 3 WNW 1020,2 60 0 0,0
16.10.2018 21:00:00 12,4 9,4 7,7 17,0 17,0 2 1 10 5 W 1019,9 58 0 0,0
16.10.2018 20:00:00 14,7 10,3 13,1 16,9 17,0 8 5 16 8 W 1019,5 60 0 0,0
16.10.2018 19:00:00 16,8 10,9 16,0 16,9 17,0 12 7 19 10 W 1019,2 60 51 0,0
16.10.2018 18:00:00 19,1 10,4 20,4 16,7 17,0 6 3 16 8 WZW 1018,6 60 52 0,0
16.10.2018 17:00:00 19,7 10,1 23,5 16,6 17,0 7 4 16 9 WNW 1018,4 16 60 0,0
16.10.2018 16:00:00 19,2 9,9 24,0 16,4 17,0 8 4 15 8 W 1018,2 60 60 0,0
16.10.2018 15:00:00 18,8 10,6 19,6 16,2 17,0 8 4 16 9 WZW 1018,3 60 44 0,0
16.10.2018 14:00:00 17,1 11,4 19,3 16,1 17,0 11 6 15 8 W 1018,4 60 37 0,0
16.10.2018 13:00:00 17,3 12,8 20,1 16,0 17,0 4 2 11 6 WZW 1018,5 60 55 0,0
16.10.2018 12:00:00 15,1 14,3 15,6 16,0 17,0 7 4 10 6 ZZO 1018,5 17 42 0,0
16.10.2018 11:00:00 12,9 12,7 13,5 16,1 17,0 6 3 8 5 ZZO 1018,1 0,6 13 0,0
16.10.2018 10:00:00 12,4 12,2 12,3 16,1 17,0 4 2 8 5 ZO 1017,3 0,2 4 0,0
16.10.2018 09:00:00 12,2 12,0 11,5 16,1 17,0 6 4 10 5 OZO 1016,8 0,2 0 0,0
16.10.2018 08:00:00 12,6 12,4 10,1 16,2 17,0 8 4 11 6 ZZO 1016,1 0,2 0 0,0
16.10.2018 07:00:00 12,6 12,3 11,4 16,2 17,0 6 3 9 5 Z 1015,6 4,2 0 0,0
16.10.2018 06:00:00 13,2 12,9 12,9 16,2 17,0 5 3 14 7 Z 1015,1 7 0 0,0
16.10.2018 05:00:00 13,2 12,9 13,2 16,3 17,0 9 5 17 9 Z 1014,6 2,5 0 0,2
16.10.2018 04:00:00 13,3 13,0 13,3 16,3 17,0 7 4 10 5 Z 1014,4 1,9 0 0,0
16.10.2018 03:00:00 13,4 12,9 13,3 16,3 17,0 6 3 10 6 Z 1014,0 2,1 0 0,0
16.10.2018 02:00:00 13,6 13,0 13,4 16,4 17,0 6 4 9 5 Z 1013,5 3,3 0 0,0
16.10.2018 01:00:00 13,5 12,7 13,4 16,4 17,0 0 0 11 6 N 1013,3 7 0 0,0
16.10.2018 00:00:00 13,5 12,7 13,3 16,4 17,0 3 2 9 5 W 1012,6 11 0 0,0
15.10.2018 23:00:00 13,6 12,7 13,2 16,5 17,0 3 2 10 5 WZW 1012,3 18 0 0,0
15.10.2018 22:00:00 13,5 12,6 12,9 16,5 17,0 7 4 14 7 NW 1011,6 20 0 0,0
15.10.2018 21:00:00 13,5 12,4 13,1 16,5 17,0 9 5 16 8 NW 1010,7 14 0 0,0
15.10.2018 20:00:00 13,7 11,7 13,3 16,5 17,0 10 5 18 10 N 1010,5 20 0 0,0
15.10.2018 19:00:00 13,9 11,8 13,9 16,6 17,0 10 5 16 9 N 1010,0 60 0 0,0
15.10.2018 18:00:00 14,1 11,6 14,1 16,5 17,0 9 5 16 9 N 1009,7 60 0 0,0
15.10.2018 17:00:00 14,1 11,8 14,1 16,5 17,0 9 5 15 8 N 1009,4 60 0 0,0
15.10.2018 16:00:00 14,3 12,0 14,2 16,5 17,0 9 5 15 8 NNO 1009,1 60 0 0,0
15.10.2018 15:00:00 15,0 12,3 14,6 16,4 17,0 11 6 16 9 N 1008,9 59 0 0,0
15.10.2018 14:00:00 14,5 11,6 14,6 16,4 17,0 0 0 10 6 N 1009,8 60 0 0,0
15.10.2018 13:00:00 14,3 12,5 14,3 16,4 17,0 6 4 11 6 NNO 1009,1 43 0 0,2
15.10.2018 12:00:00 13,9 12,8 14,1 16,4 17,0 5 3 9 5 O 1009,1 60 0 0,0
15.10.2018 11:00:00 12,9 12,6 11,9 16,5 17,0 4 2 7 4 O 1008,7 55 0 0,0
15.10.2018 10:00:00 11,9 11,6 9,5 16,6 17,0 5 3 8 4 O 1008,5 43 0 0,0
15.10.2018 09:00:00 10,4 9,9 8,8 16,8 17,0 6 4 8 5 O 1008,1 0,7 0 0,0
15.10.2018 08:00:00 11,7 11,2 9,8 16,9 17,0 0 0 6 4 N 1007,9 52 0 0,0
15.10.2018 07:00:00 12,0 11,5 10,4 17,0 17,0 4 2 8 4 ZW 1007,6 60 0 0,0
15.10.2018 06:00:00 11,9 11,4 9,6 17,1 17,0 6 3 9 5 Z 1007,6 60 0 0,0
15.10.2018 05:00:00 12,1 11,3 9,8 17,2 17,0 4 2 9 5 Z 1007,2 60 0 0,0
15.10.2018 04:00:00 12,4 11,5 10,6 17,3 17,0 3 2 13 7 WZW 1007,5 60 0 0,0
15.10.2018 03:00:00 12,8 11,9 11,4 17,4 17,0 8 4 25 13 ZW 1007,5 60 0 0,2
15.10.2018 02:00:00 13,2 12,4 12,9 17,4 17,0 15 8 27 15 ZZW 1007,3 5 0 0,0
15.10.2018 01:00:00 13,4 12,3 13,0 17,5 17,0 14 7 25 13 ZW 1006,6 6 0 0,0
15.10.2018 00:00:00 13,8 12,4 13,4 17,6 17,0 14 7 26 14 ZW 1006,0 20 0 0,0
14.10.2018 23:00:00 14,0 12,6 13,8 17,7 17,0 11 6 33 18 ZW 1005,5 60 0 0,0
14.10.2018 22:00:00 14,2 12,9 14,0 17,7 17,0 18 10 28 15 ZW 1005,4 17 0 0,0
14.10.2018 21:00:00 15,2 13,7 14,7 17,7 17,0 13 7 29 15 ZW 1004,7 20 0 0,2
14.10.2018 20:00:00 15,9 14,3 15,7 17,7 17,0 15 8 23 12 ZW 1004,4 60 0 0,0
14.10.2018 19:00:00 16,4 14,6 16,5 17,7 17,0 14 7 31 17 ZZW 1003,6 59 0 0,0
14.10.2018 18:00:00 18,3 15,7 18,4 17,6 17,0 16 9 36 19 ZZW 1002,9 36 4 0,0
14.10.2018 17:00:00 18,9 16,3 18,0 17,5 17,0 19 10 36 19 Z 1002,8 20 0 0,0
14.10.2018 16:00:00 21,5 16,2 23,5 17,3 17,0 23 12 36 19 Z 1002,7 52 29 0,0
14.10.2018 15:00:00 22,2 15,8 23,1 17,2 17,0 22 12 45 25 Z 1002,7 54 0 0,0

tt = temperatuur
td = dauwpunt
tt 5cm = temperatuur 5cm
tt -20cm = temperatuur -20cm
tt -100cm = temperatuur -100cm
ff = windsnelheid
fx = windstoten
dd = windrichting
ppp = luchtdruk
vv = zicht
sd = Zonneschijnduur
rr = neerslag

Weerstations in de omgeving